DW6725 Weather Reports


Display with metric or nautical units.
time (UTC)temp
F
wind
direction
speed
MPH
gust
MPH
rain 1hr
in
rain 24hr
in
rain mn
in
humidity
%
barometer
mb
20260506231216 45 360 1.0 4.0 0.00 0.90 0.67 97 1009.9
20260506230005 45 360 1.0 3.0 0.00 0.90 0.67 97 1009.9
20260506225004 45 360 0.0 3.0 0.00 0.90 0.67 96 1009.9
20260506224004 45 360 0.0 2.0 0.00 0.90 0.67 96 1010.2
20260506223006 45 360 1.0 4.0 0.00 0.90 0.67 96 1010.1
20260506222005 46 360 1.0 6.0 0.00 0.90 0.67 96 1010.3
20260506221006 46 360 1.0 7.0 0.00 0.90 0.67 96 1010.4
20260506220005 46 360 1.0 6.0 0.00 0.90 0.67 97 1010.2
20260506215004 46 360 3.0 8.0 0.00 0.90 0.67 97 1010.3
20260506214007 46 360 2.0 8.0 0.00 0.90 0.67 98 1010.1
20260506213213 46 360 3.0 9.0 0.00 0.90 0.67 98 1009.8
20260506212215 46 360 3.0 10.0 0.00 0.90 0.67 99 1010.0
20260506211003 45 360 3.0 10.0 0.00 0.90 0.67 99 1009.9
20260506210005 45 360 4.0 10.0 0.00 0.90 0.67 100 1010.0
20260506205003 45 360 4.0 12.0 0.00 0.90 0.67 100 1009.8
20260506204003 46 360 3.0 9.0 0.00 0.91 0.67 100 1009.8
20260506203003 45 360 4.0 10.0 0.00 0.91 0.67 100 1009.4
20260506202003 45 360 3.0 10.0 0.00 0.91 0.67 100 1009.4
20260506201003 45 360 5.0 10.0 0.00 0.91 0.67 100 1009.3
20260506200006 45 360 2.0 9.0 0.00 0.91 0.67 100 1009.5
20260506195003 45 360 3.0 9.0 0.01 0.91 0.67 100 1009.5
20260506194003 45 360 3.0 9.0 0.01 0.91 0.67 100 1009.5
20260506193003 45 360 4.0 11.0 0.01 0.91 0.67 100 1009.5
20260506192004 45 360 2.0 8.0 0.01 0.91 0.67 100 1009.3
20260506191003 45 360 3.0 8.0 0.01 0.91 0.67 100 1009.0
20260506190003 45 360 3.0 12.0 0.00 0.90 0.66 100 1009.0
20260506185214 45 360 4.0 12.0 0.00 0.90 0.66 100 1009.1
20260506184004 45 360 4.0 12.0 0.00 0.90 0.66 100 1009.1
20260506183005 45 360 3.0 12.0 0.00 0.91 0.66 100 1009.0
20260506182005 46 360 4.0 10.0 0.00 0.92 0.66 100 1008.7
20260506181006 46 360 4.0 8.0 0.00 0.94 0.66 100 1008.6
20260506180214 46 360 4.0 10.0 0.01 0.99 0.66 100 1008.3
20260506175216 47 360 2.0 7.0 0.01 1.02 0.66 100 1008.3
20260506174214 47 360 2.0 7.0 0.01 1.02 0.66 100 1008.0
20260506173005 47 360 2.0 5.0 0.01 1.04 0.66 100 1008.3
20260506172005 47 360 1.0 5.0 0.01 1.04 0.66 100 1008.1
20260506171004 46 360 1.0 4.0 0.01 1.03 0.65 100 1008.1
20260506170213 46 360 1.0 4.0 0.01 1.03 0.65 100 1008.0
20260506165215 46 360 1.0 4.0 0.04 1.03 0.65 100 1008.0
20260506164004 46 360 1.0 6.0 0.06 1.03 0.65 100 1008.3
20260506163004 46 360 2.0 5.0 0.07 1.03 0.65 100 1008.1
20260506162003 46 360 1.0 5.0 0.08 1.03 0.65 100 1008.1
20260506161005 45 360 1.0 3.0 0.07 1.02 0.64 100 1008.3
20260506160213 45 360 2.0 6.0 0.08 1.02 0.64 100 1008.5
20260506155004 45 360 2.0 5.0 0.06 0.99 0.61 100 1008.3
20260506154003 45 360 1.0 5.0 0.05 0.97 0.59 100 1008.5
20260506153003 45 360 0.0 5.0 0.04 0.96 0.58 100 1008.5
20260506152006 45 0 0.0 0.0 0.04 0.94 0.57 100 1008.4
20260506151213 45 0 0.0 0.0 0.05 0.94 0.57 100 1008.1
20260506150005 45 0 0.0 0.0 0.04 0.93 0.56 100 1007.9
20260506145215 45 0 0.0 0.0 0.04 0.93 0.56 100 1008.1
20260506144003 45 360 1.0 4.0 0.05 0.92 0.54 100 1007.7
20260506143004 45 360 1.0 4.0 0.06 0.92 0.54 100 1008.0
20260506142003 45 0 0.0 0.0 0.06 0.91 0.53 100 1008.0
20260506141004 45 360 1.0 6.0 0.07 0.90 0.52 100 1008.1
20260506140214 44 360 2.0 6.0 0.09 0.90 0.52 100 1008.1
20260506135003 44 360 1.0 6.0 0.12 0.89 0.51 100 1008.1
20260506134214 44 360 2.0 7.0 0.15 0.89 0.51 100 1008.3
20260506133004 44 360 1.0 4.0 0.15 0.86 0.48 100 1008.4
20260506132005 44 360 1.0 5.0 0.17 0.85 0.47 100 1008.3
20260506131214 44 360 1.0 5.0 0.15 0.83 0.45 100 1008.4
20260506130214 44 360 2.0 5.0 0.14 0.80 0.43 100 1008.4
20260506125004 44 360 1.0 5.0 0.12 0.77 0.39 100 1008.4
20260506124004 44 360 2.0 4.0 0.08 0.73 0.35 100 1008.4
20260506123004 44 360 1.0 4.0 0.07 0.71 0.33 100 1008.2
20260506122004 44 360 2.0 6.0 0.06 0.69 0.31 100 1008.2
20260506121004 44 360 1.0 6.0 0.06 0.67 0.30 100 1008.0
20260506120004 44 360 2.0 6.0 0.08 0.66 0.28 100 1008.3
20260506115006 44 360 1.0 5.0 0.11 0.65 0.27 100 1008.2
20260506114004 45 360 1.0 4.0 0.11 0.65 0.27 100 1008.4
20260506113215 45 360 1.0 5.0 0.11 0.64 0.26 100 1008.2
20260506112004 45 360 1.0 5.0 0.11 0.63 0.25 100 1008.6
20260506111003 45 360 1.0 5.0 0.09 0.61 0.24 100 1008.7
20260506110005 45 360 1.0 4.0 0.05 0.57 0.19 100 1008.7
20260506105213 44 360 1.0 4.0 0.04 0.56 0.18 100 1008.5
20260506104004 44 360 1.0 4.0 0.04 0.54 0.17 100 1008.3
20260506103004 44 360 1.0 4.0 0.04 0.53 0.15 100 1008.4
20260506102003 44 360 0.0 4.0 0.04 0.52 0.14 100 1008.4
20260506101004 44 360 2.0 4.0 0.05 0.52 0.14 100 1008.1
20260506100005 44 360 1.0 4.0 0.05 0.52 0.14 100 1008.3
20260506095004 44 360 1.0 6.0 0.06 0.52 0.14 100 1008.3
20260506094214 44 360 1.0 5.0 0.06 0.51 0.13 100 1008.5
20260506093004 44 360 1.0 4.0 0.06 0.50 0.12 100 1008.9
20260506092004 45 360 1.0 4.0 0.06 0.48 0.11 100 1009.0
20260506091003 45 360 1.0 5.0 0.06 0.47 0.09 100 1008.9
20260506090003 45 360 2.0 6.0 0.07 0.46 0.08 100 1009.1
20260506085212 45 360 2.0 7.0 0.07 0.46 0.08 100 1009.1
20260506084005 45 360 2.0 6.0 0.07 0.45 0.07 100 1008.9
20260506083003 46 360 3.0 7.0 0.06 0.44 0.06 100 1008.8
20260506082004 46 360 4.0 8.0 0.05 0.43 0.05 100 1008.8
20260506081004 47 360 2.0 9.0 0.04 0.41 0.04 100 1009.1
20260506073004 47 360 1.0 4.0 0.00 0.39 0.00 100 1008.5
20260506072006 47 360 2.0 5.0 0.00 0.39 0.00 100 1008.3
20260506071005 48 360 0.0 4.0 0.00 0.39 0.00 100 1008.5
20260506062005 48 0 0.0 0.0 0.00 0.39 0.00 100 1009.1
20260506061006 48 360 1.0 6.0 0.00 0.39 0.00 100 1009.3
20260506051006 49 360 1.0 5.0 0.00 0.39 0.00 100 1009.9
20260506050213 49 360 0.0 5.0 0.00 0.39 0.00 100 1009.9
20260506044006 48 360 0.0 4.0 0.00 0.39 0.00 100 1010.1
20260506043004 48 360 0.0 3.0 0.01 0.39 0.00 100 1010.1
20260506042004 48 360 0.0 3.0 0.02 0.39 0.00 100 1010.3
20260506041003 48 0 0.0 2.0 0.04 0.39 0.00 100 1010.2
20260506040006 48 0 0.0 0.0 0.04 0.39 0.00 100 1010.1
20260506035003 48 0 0.0 0.0 0.05 0.39 0.39 100 1010.3
20260506034214 48 0 0.0 0.0 0.06 0.39 0.39 100 1010.3
20260506033004 48 0 0.0 0.0 0.05 0.37 0.37 99 1010.7
20260506032004 48 0 0.0 0.0 0.07 0.37 0.37 99 1010.3
20260506031004 48 0 0.0 0.0 0.08 0.35 0.35 100 1010.5
20260506030004 48 0 0.0 0.0 0.09 0.35 0.35 99 1010.3
20260506025004 48 360 0.0 2.0 0.09 0.34 0.34 98 1010.6
20260506024003 48 0 0.0 0.0 0.11 0.33 0.33 99 1010.7
20260506023003 48 0 0.0 0.0 0.11 0.32 0.32 97 1010.7
20260506022003 48 360 0.0 3.0 0.09 0.30 0.30 97 1010.8
20260506021006 48 360 0.0 4.0 0.07 0.27 0.27 96 1010.8
20260506020004 48 0 0.0 2.0 0.06 0.26 0.26 96 1010.7
20260506015005 48 360 0.0 3.0 0.06 0.25 0.25 95 1010.1
20260506014004 48 360 0.0 2.0 0.04 0.22 0.22 93 1010.3
20260506013004 48 360 0.0 3.0 0.02 0.21 0.21 92 1010.4
20260506012005 48 360 1.0 4.0 0.04 0.20 0.20 90 1010.6
20260506011006 49 360 1.0 6.0 0.04 0.20 0.20 89 1010.5
20260506010005 49 360 2.0 8.0 0.04 0.20 0.20 88 1010.4
20260506005004 50 360 3.0 9.0 0.02 0.19 0.19 84 1010.1
20260506004005 51 360 3.0 11.0 0.02 0.19 0.19 79 1010.0
20260506003004 54 360 4.0 11.0 0.02 0.19 0.19 71 1010.1
20260506002005 55 360 4.0 10.0 0.00 0.17 0.17 65 1009.9
20260506001215 56 360 5.0 13.0 0.00 0.17 0.17 64 1009.4
20260506000004 57 360 5.0 12.0 0.00 0.17 0.17 64 1009.3
20260505235003 58 360 6.0 13.0 0.00 0.17 0.17 65 1008.9
20260505234003 58 360 5.0 12.0 0.00 0.17 0.17 66 1008.7
20260505233005 59 360 7.0 14.0 0.00 0.17 0.17 65 1008.3
20260505232213 60 360 6.0 13.0 0.00 0.17 0.17 64 1008.2